Flag for U.S.A. Weather past 2 weeks in Citrus Heights, California, U.S.A.

Now
104 °F

Passing clouds.


Feels Like: 99 °F
Forecast: 67 / 103 °F
Wind: 8 mph from Northwest

Location: Mather Field

Current Time: Aug 1, 2014 at 4:11:57 PM

Latest Report: Aug 1, 2014 at 2:45 PM


Visibility: 10 mi

Pressure: 29.81 "Hg

Humidity: 11%

Dew point: 39 °F

Location of Citrus HeightsLocation

Historic Weather in Citrus Heights — Graph

°F

Citrus Heights temperature yesterday

Maximum temperature yesterday: 102 °F (at 5:58 PM)
Minimum temperature yesterday: 64 °F (at 5:50 AM)
Average temperature yesterday: 80 °F

Past Weeks' High & Low Weather Summary

 TemperatureHumidityPressure
High104 °F (Aug 1, 2:45 PM)100% (Jul 19, 4:55 AM)30.13 "Hg (Jul 19, 4:55 AM)
Low55 °F (Jul 23, 5:46 AM)8% (Jul 25, 7:45 PM)29.77 "Hg (Jul 25, 5:55 PM)
Average77 °F48%29.93 "Hg
* Reported Jul 17 2:47 PM — Aug 1 2:45 PM, Citrus Heights, Weather by CustomWeather, © 2014

Note: Actual official high and low records may vary slightly from our data, if they occured in-between our weather recording intervals... More about our weather records

Advertising

Citrus Heights weather history for previous 24 hours

 ConditionsComfort  
Time TempWeatherWind HumidityBarometerVisibility
2:45 PM
Aug 1
104 °FPassing clouds.8 mph11%29.81 "Hg10 mi
1:49 PM100 °FPassing clouds.5 mph17%29.83 "Hg10 mi
12:57 PM99 °FPassing clouds.8 mph18%29.84 "Hg10 mi
11:45 AM93 °FPassing clouds.3 mph21%29.85 "Hg10 mi
10:45 AM86 °FScattered clouds.3 mph29%29.86 "Hg10 mi
9:45 AM82 °FScattered clouds.5 mph35%29.86 "Hg10 mi
8:45 AM75 °FScattered clouds.5 mph47%29.86 "Hg10 mi
7:50 AM72 °FPassing clouds.7 mph53%29.85 "Hg10 mi
6:59 AM64 °FPassing clouds.5 mph68%29.84 "Hg10 mi
5:55 AM63 °FPassing clouds.3 mph73%29.84 "Hg10 mi
4:50 AM64 °FClear.5 mph68%29.83 "Hg10 mi
3:50 AM64 °FClear.5 mph64%29.83 "Hg10 mi
2:45 AM66 °FClear.6 mph60%29.83 "Hg10 mi
11:30 PM
Jul 31
73 °FClear.5 mph47%29.83 "Hg10 mi
10:50 PM73 °FClear.5 mph47%29.83 "Hg10 mi
9:58 PM75 °FClear.7 mph44%29.83 "HgN/A
8:45 PM84 °FSunny.6 mph37%29.81 "Hg10 mi
7:48 PM93 °FSunny.6 mph26%29.79 "Hg10 mi
6:47 PM100 °FSunny.8 mph17%29.79 "Hg10 mi
5:58 PM102 °FSunny.9 mph16%29.79 "Hg10 mi
Weather by CustomWeather, © 2014

See weather overviewHow to use our weather pages